Location: Laguna de la Cañada del Gallo
(40.3974°N, 5.2096°W)
Time: 12:29:05
(UTC+00:00)

USA 267 - Pass Details

Date: 18 April 2024
Orbit: 1100 x 1107 km, 123.0° (Epoch: 21 May)

Event Time Altitude Azimuth Distance (km) Brightness Sun altitude
Rises 19:21:21 0° 45° (NE) 3,923 5.9 -4.1°
Reaches altitude 10° 19:23:50 10° 44° (NE) 2,964 5.3 -4.5°
Maximum altitude 19:30:20 73° 321° (NW) 1,151 3.6 -5.7°
Drops below altitude 10° 19:36:51 10° 238° (WSW) 2,957 6.1 -6.9°
Sets 19:39:20 0° 236° (WSW) 3,914 6.7 -7.3°
